Flag for U.S.A. Weather past 2 weeks in Warren, Michigan, U.S.A.

Now
49 °F

Mostly cloudy.


Feels Like: 43 °F
Forecast: 44 / 50 °F
Wind: 16 mph from North

Location: Detroit City Airport

Current Time: Oct 21, 2014 at 11:40:44 AM

Latest Report: Oct 21, 2014 at 10:53 AM


Visibility: 10 mi

Pressure: 30.02 "Hg

Humidity: 69%

Dew point: 39 °F

Location of WarrenLocation

Historic Weather in Warren — Graph

°F

Warren temperature yesterday

Maximum temperature yesterday: 59 °F (at 2:53 PM)
Minimum temperature yesterday: 49 °F (at 5:53 AM)
Average temperature yesterday: 54 °F

Past Weeks' High & Low Weather Summary

 TemperatureHumidityPressure
High72 °F (Oct 13, 4:53 PM)91% (Oct 13, 12:53 PM)30.26 "Hg (Oct 13, 12:53 PM)
Low35 °F (Oct 19, 7:53 AM)29% (Oct 8, 4:53 PM)29.50 "Hg (Oct 17, 2:53 PM)
Average55 °F68%29.90 "Hg
* Reported Oct 6 10:53 AM — Oct 21 10:53 AM, Warren, Weather by CustomWeather, © 2014

Note: Actual official high and low records may vary slightly from our data, if they occured in-between our weather recording intervals... More about our weather records

Advertising

Warren weather history for previous 24 hours

 ConditionsComfort  
Time TempWeatherWind HumidityBarometerVisibility
10:53 AM
Oct 21
49 °FMostly cloudy.16 mph69%30.02 "Hg10 mi
9:53 AM50 °FOvercast.14 mph66%30.00 "Hg10 mi
8:53 AM50 °FMostly cloudy.13 mph74%29.98 "Hg10 mi
7:53 AM50 °FMostly cloudy.7 mph83%29.95 "Hg10 mi
7:04 AM50 °FMostly cloudy.8 mph83%29.93 "Hg5 mi
6:53 AM49 °FFog.6 mph86%29.93 "Hg4 mi
5:53 AM50 °FMostly cloudy.7 mph80%29.91 "Hg10 mi
4:53 AM50 °FOvercast.6 mph80%29.90 "Hg10 mi
3:53 AM51 °FMostly cloudy.7 mph74%29.89 "Hg10 mi
2:53 AM51 °FOvercast.8 mph77%29.89 "Hg10 mi
1:53 AM50 °FPassing clouds.8 mph80%29.88 "Hg10 mi
12:53 AM52 °FOvercast.10 mph77%29.87 "Hg10 mi
11:53 PM
Oct 20
54 °FMostly cloudy.7 mph80%29.88 "Hg10 mi
10:53 PM54 °FLight rain. Mostly cloudy.5 mph83%29.86 "Hg9 mi
10:04 PM56 °FLight rain. Mostly cloudy.6 mph77%29.85 "Hg7 mi
9:53 PM56 °FMostly cloudy.5 mph75%29.85 "Hg10 mi
8:53 PM57 °FMostly cloudy.7 mph72%29.84 "Hg10 mi
7:53 PM57 °FOvercast.No wind72%29.83 "Hg10 mi
6:53 PM58 °FOvercast.5 mph70%29.81 "Hg10 mi
5:53 PM58 °FMostly cloudy.6 mph70%29.80 "Hg10 mi
4:53 PM59 °FOvercast.8 mph64%29.79 "Hg10 mi
3:53 PM58 °FLight rain. Mostly cloudy.6 mph70%29.78 "Hg7 mi
2:53 PM59 °FPartly sunny.7 mph64%29.78 "Hg10 mi
1:53 PM57 °FBroken clouds.13 mph67%29.80 "Hg10 mi
12:53 PM56 °FMostly cloudy.12 mph67%29.82 "Hg10 mi
11:53 AM56 °FOvercast.10 mph67%29.84 "Hg10 mi
Weather by CustomWeather, © 2014

See weather overviewHow to use our weather pages